Regional Weather Roundup
Issued by NWS

Home | Current Version | Previous Version | Text Only | Print | Product List | Glossary Off
Versions: 1 2 3 4 5 6 7 8 9 10 11 12 13 14 15 16 17 18 19 20 21 22 23 24 25 26 27 28 29 30 31 32 33 34 35 36 37 38 39 40 41 42 43 44 45 46 47 48 49 50

676
ASUS44 KLIX 282205
RWRLA
LOUISIANA WEATHER ROUNDUP
NATIONAL WEATHER SERVICE NEW ORLEANS LA
400 PM CST WED JAN 28 2015

NOTE: "FAIR" INDICATES FEW OR NO CLOUDS BELOW 12,000 FEET WITH NO
      SIGNIFICANT WEATHER AND/OR OBSTRUCTIONS TO VISIBILITY.
      SKY/WX - SKY CONDITION AND SIGNIFICANT WEATHER.
      TMP - AIR TEMPERATURE.    DP   - DEWPOINT TEMPERATURE.
      RH  - RELATIVE HUMIDITY.  PRES - PRESSURE.
      HX  - HEAT INDEX.         WCI  - WIND CHILL INDEX.

*  THESE STATIONS ARE NOT NWS OR FAA STATIONS AND ARE NOT UNDER
   NWS QUALITY CONTROL.

LAZ040-048-061>063-065-066-069-282300-
SOUTHEAST LOUISIANA

CITY           SKY/WX    TMP DP  RH WIND       PRES   REMARKS
N.O. AUDUBON     N/A     64  46  51 MISG        N/A
N.O. INTL ARPT MOSUNNY   67  37  33 SE5       30.22F
N.O. LAKEFRONT SUNNY     64  42  44 E7        30.24F
N.O. DOWNTOWN* NOT AVBL
SLIDELL        SUNNY     62  41  46 S8        30.23S
BATON ROUGE    SUNNY     70  34  26 S12       30.20S
BOOTHVILLE     SUNNY     59  47  64 NE6       30.25S
BELLE CHASSE   SUNNY     62  43  49 SE10      30.23F
BOGALUSA*        N/A     71  31  22 CALM      30.22F
GALLIANO*      CLEAR     65  45  47 MISG      30.24S
NEW ROADS*     FAIR      71  39  32 SE8       30.20S
GONZALES*      FAIR      69  42  36 S10       30.21S
HAMMOND*       SUNNY     66  37  34 SE7       30.24R
HOUMA*         SUNNY     68  46  45 SE8       30.23S
PORT FOURCHON* CLEAR     63  52  67 E9        30.26S

$$

LAZ041-044-053-054-282300-
SOUTHWEST LOUISIANA

CITY           SKY/WX    TMP DP  RH WIND       PRES   REMARKS
LAKE CHARLES   SUNNY     68  40  35 S15       30.18F
LAFAYETTE      SUNNY     69  47  45 S12       30.21S
PATTERSON      SUNNY     70  45  40 S7        30.22F
SALT POINT       N/A     64  47  53 SE7       30.22R
NEW IBERIA     SUNNY     69  45  41 S12       30.22R
CHENAULT AIRPK SUNNY     70  39  32 S15       30.19F

$$

LAZ027-028-282300-
CENTRAL LOUISIANA

CITY           SKY/WX    TMP DP  RH WIND       PRES   REMARKS
FORT POLK      PTSUNNY   73  41  31 S14       30.14F
ALEXANDRIA INT SUNNY     71  39  31 S7        30.14F
ALEXANDRIA     SUNNY     72  42  34 S8        30.16F

$$

LAZ001-002-282300-
NORTHWEST LOUISIANA

CITY           SKY/WX    TMP DP  RH WIND       PRES   REMARKS
SHREVEPORT     PTSUNNY   74  43  32 S16       30.07F
BARKSDALE AFB  MOSUNNY   74  41  30 S16       30.07F
DTN SHREVEPORT MOSUNNY   72  41  32 S17       30.07F

$$

LAZ014-016-282300-
NORTHEAST LOUISIANA

CITY           SKY/WX    TMP DP  RH WIND       PRES   REMARKS
MONROE         SUNNY     71  42  35 VRB7      30.14F
TALLULAH       SUNNY     71  38  29 SE10      30.16F

$$




USA.gov is the U.S. government's official web portal to all federal, state and local government web resources and services.